When you browse on this site, cookies collect data to enhance your experience and personalize the content and advertising you see.
Visit our Privacy Policy to learn more. By continuing to use the site, you agree to this use of cookies and data.
  • In Austria
  • List of Countries
  • For 7 days
  • Water Temperature
  • Weather Map
  • News
  • Weather Widgets
  • user-avatar
    Login

    Hourly Weather Angersdorf

    Today, 12 December, Thursday

    Time Temperature Precipitation Wind Pressure Humidity
    00:00 0°C° 0.3 mm 4 mps 745 mmHg 91%
    01:00 +1°C° 0.3 mm 4 mps 744 mmHg 91%
    02:00 +1°C° 0.2 mm 4 mps 744 mmHg 92%
    03:00 +1°C° 0.2 mm 4 mps 744 mmHg 92%
    04:00 +1°C° 0.2 mm 4 mps 743 mmHg 93%
    05:00 +2°C° 0.4 mm 3 mps 743 mmHg 93%
    06:00 +3°C° 0.4 mm 3 mps 744 mmHg 93%
    07:00 +3°C° 0.4 mm 3 mps 744 mmHg 92%
    08:00 +3°C° 0 mm 4 mps 744 mmHg 90%
    09:00 +3°C° 0 mm 4 mps 744 mmHg 88%
    10:00 +3°C° 0 mm 4 mps 743 mmHg 86%
    11:00 +3°C° 0 mm 4 mps 743 mmHg 82%
    12:00 +4°C° 0 mm 4 mps 743 mmHg 79%
    13:00 +4°C° 0 mm 4 mps 743 mmHg 76%
    14:00 +4°C° 0 mm 4 mps 743 mmHg 78%
    15:00 +4°C° 0 mm 4 mps 742 mmHg 80%
    16:00 +4°C° 0 mm 4 mps 742 mmHg 82%
    17:00 +3°C° 0 mm 4 mps 742 mmHg 84%
    18:00 +3°C° 0 mm 4 mps 741 mmHg 86%
    19:00 +1°C° 0 mm 4 mps 741 mmHg 89%
    20:00 +1°C° 0 mm 4 mps 740 mmHg 88%
    21:00 +1°C° 0 mm 3 mps 740 mmHg 88%
    22:00 0°C° 0 mm 3 mps 739 mmHg 87%
    23:00 -1°C° 0 mm 4 mps 738 mmHg 87%

    Tomorrow, 13 December, Friday

    Time Temperature Precipitation Wind Pressure Humidity
    00:00 -1°C° 0 mm 4 mps 737 mmHg 86%
    01:00 -1°C° 0 mm 4 mps 736 mmHg 86%
    02:00 -1°C° 0 mm 4 mps 735 mmHg 85%
    03:00 -1°C° 0 mm 4 mps 734 mmHg 84%
    04:00 -1°C° 0 mm 5 mps 733 mmHg 84%
    05:00 -1°C° 0 mm 4 mps 732 mmHg 83%
    06:00 -1°C° 0 mm 4 mps 731 mmHg 82%
    07:00 -1°C° 0 mm 4 mps 730 mmHg 81%
    08:00 -1°C° 0 mm 4 mps 730 mmHg 77%
    09:00 0°C° 0 mm 5 mps 729 mmHg 74%
    10:00 +1°C° 0 mm 5 mps 728 mmHg 70%
    11:00 +1°C° 0.1 mm 5 mps 728 mmHg 70%
    12:00 +2°C° 0.1 mm 6 mps 728 mmHg 69%
    13:00 +3°C° 0.1 mm 6 mps 728 mmHg 68%
    14:00 +3°C° 0 mm 6 mps 727 mmHg 74%
    15:00 +2°C° 0 mm 5 mps 727 mmHg 79%
    16:00 +2°C° 0 mm 5 mps 727 mmHg 84%
    17:00 +2°C° 0.2 mm 6 mps 728 mmHg 87%
    18:00 +2°C° 0.2 mm 6 mps 728 mmHg 90%
    19:00 +2°C° 0.2 mm 7 mps 728 mmHg 92%
    20:00 +2°C° 0.5 mm 7 mps 729 mmHg 90%
    21:00 +2°C° 0.5 mm 7 mps 730 mmHg 87%
    22:00 +2°C° 0.5 mm 8 mps 730 mmHg 84%
    23:00 +3°C° 0 mm 7 mps 731 mmHg 84%

    Day after tomorrow, 14 December, Saturday

    Time Temperature Precipitation Wind Pressure Humidity
    00:00 +3°C° 0 mm 7 mps 732 mmHg 83%
    01:00 +3°C° 0 mm 7 mps 733 mmHg 82%
    02:00 +2°C° 0.1 mm 8 mps 733 mmHg 82%
    03:00 +2°C° 0.1 mm 8 mps 734 mmHg 82%
    04:00 +2°C° 0.1 mm 9 mps 735 mmHg 82%
    05:00 +1°C° 0 mm 8 mps 735 mmHg 80%
    06:00 0°C° 0 mm 7 mps 736 mmHg 79%
    07:00 +1°C° 0 mm 6 mps 736 mmHg 77%
    08:00 +1°C° 0 mm 6 mps 736 mmHg 77%
    09:00 +2°C° 0 mm 7 mps 735 mmHg 78%
    10:00 +2°C° 0 mm 7 mps 735 mmHg 78%
    11:00 +2°C° 0.1 mm 8 mps 735 mmHg 77%
    12:00 +4°C° 0.1 mm 8 mps 735 mmHg 76%
    13:00 +6°C° 0.1 mm 9 mps 735 mmHg 74%
    14:00 +5°C° 0 mm 8 mps 736 mmHg 73%
    15:00 +4°C° 0 mm 8 mps 737 mmHg 72%
    16:00 +4°C° 0 mm 7 mps 737 mmHg 70%
    17:00 +3°C° 0 mm 6 mps 738 mmHg 71%
    18:00 +3°C° 0 mm 6 mps 739 mmHg 72%
    19:00 +3°C° 0 mm 5 mps 740 mmHg 72%
    20:00 +3°C° 0.1 mm 5 mps 740 mmHg 76%
    21:00 +3°C° 0.1 mm 5 mps 739 mmHg 80%
    22:00 +5°C° 0.1 mm 5 mps 739 mmHg 83%
    23:00 +5°C° 0.2 mm 5 mps 740 mmHg 84%

    15 December, Sunday

    Time Temperature Precipitation Wind Pressure Humidity
    00:00 +5°C° 0.2 mm 5 mps 740 mmHg 85%
    01:00 +5°C° 0.2 mm 5 mps 741 mmHg 86%
    02:00 +5°C° 0 mm 4 mps 741 mmHg 86%
    03:00 +5°C° 0 mm 4 mps 741 mmHg 86%
    04:00 +4°C° 0 mm 3 mps 742 mmHg 87%
    05:00 +5°C° 0.1 mm 4 mps 741 mmHg 86%
    06:00 +5°C° 0.1 mm 5 mps 741 mmHg 86%
    07:00 +4°C° 0.1 mm 6 mps 740 mmHg 85%
    08:00 +5°C° 0.7 mm 6 mps 740 mmHg 85%
    09:00 +7°C° 0.7 mm 6 mps 739 mmHg 85%
    10:00 +8°C° 0.7 mm 6 mps 739 mmHg 85%
    11:00 +7°C° 0.1 mm 8 mps 740 mmHg 78%
    12:00 +7°C° 0.1 mm 10 mps 741 mmHg 70%
    13:00 +8°C° 0.1 mm 12 mps 742 mmHg 63%
    14:00 +7°C° 0 mm 10 mps 743 mmHg 65%
    15:00 +5°C° 0 mm 8 mps 744 mmHg 67%
    16:00 +4°C° 0 mm 7 mps 746 mmHg 69%
    17:00 +4°C° 0 mm 6 mps 746 mmHg 71%
    18:00 +3°C° 0 mm 6 mps 747 mmHg 73%
    19:00 +3°C° 0 mm 6 mps 748 mmHg 75%
    20:00 +3°C° 0 mm 5 mps 749 mmHg 76%
    21:00 +2°C° 0 mm 5 mps 750 mmHg 77%
    22:00 +2°C° 0 mm 5 mps 751 mmHg 78%
    23:00 +3°C° 0 mm 4 mps 751 mmHg 78%

    16 December, Monday

    Time Temperature Precipitation Wind Pressure Humidity
    00:00 +3°C° 0 mm 4 mps 751 mmHg 79%
    01:00 +1°C° 0 mm 4 mps 751 mmHg 79%
    02:00 +1°C° 0 mm 4 mps 751 mmHg 78%
    03:00 +1°C° 0 mm 4 mps 751 mmHg 78%
    04:00 +1°C° 0 mm 4 mps 751 mmHg 77%
    05:00 +1°C° 0 mm 4 mps 751 mmHg 77%
    06:00 +3°C° 0 mm 4 mps 750 mmHg 77%
    07:00 +3°C° 0 mm 4 mps 750 mmHg 77%
    08:00 +4°C° 0 mm 4 mps 750 mmHg 78%
    09:00 +5°C° 0 mm 5 mps 750 mmHg 79%
    10:00 +5°C° 0 mm 5 mps 751 mmHg 81%
    11:00 +6°C° 0.1 mm 4 mps 750 mmHg 82%
    12:00 +6°C° 0.1 mm 4 mps 750 mmHg 84%
    13:00 +7°C° 0.1 mm 3 mps 750 mmHg 86%
    14:00 +7°C° 0.1 mm 3 mps 750 mmHg 88%
    15:00 +7°C° 0.1 mm 3 mps 750 mmHg 90%
    16:00 +6°C° 0.1 mm 2 mps 750 mmHg 92%
    17:00 +6°C° 0.1 mm 2 mps 750 mmHg 92%
    18:00 +6°C° 0.1 mm 2 mps 750 mmHg 91%
    19:00 +6°C° 0.1 mm 2 mps 750 mmHg 91%
    20:00 +6°C° 0.2 mm 2 mps 750 mmHg 92%
    21:00 +7°C° 0.2 mm 1 mps 750 mmHg 93%
    22:00 +7°C° 0.2 mm 1 mps 750 mmHg 94%
    23:00 +7°C° 0.1 mm 1 mps 750 mmHg 94%

    17 December, Tuesday

    Time Temperature Precipitation Wind Pressure Humidity
    00:00 +7°C° 0.1 mm 1 mps 750 mmHg 94%
    01:00 +7°C° 0.1 mm 1 mps 749 mmHg 93%
    02:00 +7°C° 0.2 mm 1 mps 749 mmHg 91%
    03:00 +6°C° 0.2 mm 2 mps 749 mmHg 88%
    04:00 +6°C° 0.2 mm 2 mps 749 mmHg 86%
    05:00 +6°C° 0 mm 2 mps 749 mmHg 83%
    06:00 +7°C° 0 mm 2 mps 749 mmHg 81%
    07:00 +7°C° 0 mm 2 mps 748 mmHg 78%
    08:00 +7°C° 0 mm 3 mps 748 mmHg 77%
    09:00 +7°C° 0 mm 3 mps 748 mmHg 75%
    10:00 +7°C° 0 mm 3 mps 749 mmHg 73%
    11:00 +8°C° 0 mm 3 mps 748 mmHg 70%
    12:00 +8°C° 0 mm 4 mps 748 mmHg 67%
    13:00 +10°C° 0 mm 4 mps 748 mmHg 63%
    14:00 +10°C° 0 mm 4 mps 748 mmHg 64%
    15:00 +9°C° 0 mm 5 mps 748 mmHg 65%
    16:00 +9°C° 0 mm 5 mps 748 mmHg 66%
    17:00 +8°C° 0 mm 5 mps 749 mmHg 69%
    18:00 +8°C° 0 mm 5 mps 749 mmHg 72%
    19:00 +8°C° 0 mm 5 mps 749 mmHg 75%
    20:00 +8°C° 0 mm 5 mps 750 mmHg 78%
    21:00 +7°C° 0 mm 5 mps 750 mmHg 80%
    22:00 +7°C° 0 mm 5 mps 751 mmHg 83%
    23:00 +7°C° 0.1 mm 5 mps 751 mmHg 81%
    Show more